Weather in Nikolaevsk-na-Amure

Russia / Khabarovsk Krai     53°08′46″N   140°42′39″E
temp.,
°C
wind,
m/s
gust,
m/s
humid.,
%
clouds,
%
prec.,
mm/h
press.,
hPa
HPBL,
m
27 february, sat
sat2701:00−22wsw2210098 0.0 102722
04:00−24wsw229972 0.0 102722
07:00−24wsw22990 0.0 102721
10:00−18wsw22920 0.0 1027120
13:00−12wsw24840 0.0 1026362
16:00−11wsw138611 0.0 1024427
19:00−17sse119684 0.0 102420
22:00−18se119991 0.0 102220
28 february, sun
sun2801:00−17se2297100 0.0 101837
04:00−16se1297100 0.4 101387
07:00−14se1198100 1.4 101138
10:00−12w2792100 1.9 1010539
13:00−12w4792100 0.1 1010725
16:00−13wnw5892100 0.4 1011807
19:00−19w4894100 0.2 1013432
22:00−23wsw349897 0.2 101592
1 march, mon
mon101:00−23w23100100 0.1 1015106
04:00−22w3599100 0.3 1017234
07:00−20w3998100 0.3 1018361
10:00−20w61279100 0.3 1019577
13:00−19wnw6108192 0.0 1020867
16:00−19wnw6128187 0.0 10211126
19:00−23w398934 0.0 1022218
22:00−26wsw229063 0.0 102332
2 march, tue
tue201:00−27wsw229429 0.0 102324
04:00−28wsw239124 0.0 102428
07:00−29sw12850 0.0 102520
10:00−23wsw389333 0.0 1025574
13:00−20wsw467985 0.0 10261128
16:00−20w467891 0.1 10261161
19:00−25wsw228890 0.0 102620
22:00−27ssw128944 0.0 102721
3 march, wed
wed301:00−28sw229262 0.0 102521
04:00−29wsw229032 0.0 102521
07:00−30sw22890 0.0 102422
10:00−24wsw24840 0.0 1023216
13:00−19w38740 0.0 1021557
16:00−17wsw26720 0.0 1019584
19:00−24s11860 0.0 101720
22:00−24sse11883 0.0 101520